Location: Brantford
(43.1330°N, 80.2670°W)
Time: 07:03:35
(UTC-05:00)

ISS - Pass Details

Date: 28 October 2019
Orbit: 412 x 421 km, 51.6° (Epoch: 13 November)

Event Time Altitude Azimuth Distance (km) Brightness Sun altitude
Exits shadow 05:22:47 23° 92° (E) 952 -1.3 -27.5°
Drops below altitude 10° 05:24:25 10° 72° (ENE) 1,506 0.0 -27.2°
Sets 05:26:38 0° 63° (ENE) 2,372 1.2 -26.8°
